,,PA_Meas_PMT16A,,PR_Meas_QMR101_102,,RH_Meas_QMH101,,SR_Meas_QMS101,,TA_Meas_QMH101,,GenWind,,GenWind,
time,status,PA,status,PR,status,RH,status,SR,status,TA,status,DirAvg,status,SpdAvg,
2014-07-08, 07:17:04,VALID,917.533,VALID,0,VALID,88.889,VALID,30.9431,VALID,19.8993,VALID,18,VALID,1.31133,
2014-07-08, 07:18:04,VALID,917.55,VALID,0,VALID,88.9729,VALID,33.1993,VALID,19.8783,VALID,28,VALID,0.645312,
2014-07-08, 07:19:04,VALID,917.525,VALID,0,VALID,88.9424,VALID,31.91,VALID,19.9173,VALID,26,VALID,0.825781,
2014-07-08, 07:20:04,VALID,917.552,VALID,0,VALID,88.8814,VALID,32.3398,VALID,19.8963,VALID,358,VALID,0.674219,
2014-07-08, 07:21:04,VALID,917.588,VALID,0,VALID,88.7366,VALID,35.0258,VALID,19.9578,VALID,38,VALID,0.854688,
2014-07-08, 07:22:04,VALID,917.595,VALID,0,VALID,88.5612,VALID,38.7863,VALID,19.9773,VALID,33,VALID,0.316016,
2014-07-08, 07:23:04,VALID,917.596,VALID,0,VALID,88.6984,VALID,41.9021,VALID,19.9743,VALID,43,VALID,0.913672,
2014-07-08, 07:24:04,VALID,917.59,VALID,0,VALID,89.2397,VALID,44.3732,VALID,20.0148,VALID,31,VALID,0.814844,
2014-07-08, 07:25:04,VALID,917.607,VALID,0,VALID,89.4074,VALID,45.7699,VALID,20.0374,VALID,33,VALID,0.587891,
2014-07-08, 07:26:04,VALID,917.587,VALID,0,VALID,89.5142,VALID,49.1006,VALID,20.0358,VALID,33,VALID,0.892187,
2014-07-08, 07:27:04,VALID,917.635,VALID,0,VALID,89.5828,VALID,53.2908,VALID,20.0148,VALID,33,VALID,0.981641,
2014-07-08, 07:28:04,VALID,917.641,VALID,0,VALID,89.415,VALID,56.7289,VALID,20.0343,VALID,25,VALID,0.953906,
2014-07-08, 07:29:04,VALID,917.651,VALID,0,VALID,89.1406,VALID,60.167,VALID,20.0343,VALID,38,VALID,1.29766,
2014-07-08, 07:30:04,VALID,917.662,VALID,0,VALID,89.3236,VALID,60.7043,VALID,20.0749,VALID,27,VALID,0.983203,
2014-07-08, 07:31:04,VALID,917.644,VALID,0,VALID,88.8585,VALID,56.8364,VALID,20.0749,VALID,18,VALID,0.692578,
2014-07-08, 07:32:04,VALID,917.666,VALID,0,VALID,88.9195,VALID,51.6792,VALID,20.1139,VALID,28,VALID,1.25352,
2014-07-08, 07:33:04,VALID,917.673,VALID,0,VALID,88.8204,VALID,49.1006,VALID,20.1318,VALID,33,VALID,1.38164,
2014-07-08, 07:34:04,VALID,917.675,VALID,0,VALID,88.4392,VALID,48.9932,VALID,20.1318,VALID,17,VALID,0.876953,
2014-07-08, 07:35:04,VALID,917.692,VALID,0,VALID,88.2258,VALID,49.8527,VALID,20.1513,VALID,31,VALID,1.23125,
2014-07-08, 07:36:04,VALID,917.702,VALID,0,VALID,88.3401,VALID,51.3569,VALID,20.1903,VALID,9,VALID,0.880078,
2014-07-08, 07:37:04,VALID,917.738,VALID,0,VALID,88.3859,VALID,50.9271,VALID,20.2309,VALID,6,VALID,0.451562,
2014-07-08, 07:38:04,VALID,917.713,VALID,0,VALID,88.7061,VALID,47.5964,VALID,20.2278,VALID,6,VALID,0.594141,
2014-07-08, 07:39:04,VALID,917.712,VALID,0,VALID,88.5917,VALID,45.555,VALID,20.2699,VALID,10,VALID,0.950781,
2014-07-08, 07:40:04,VALID,917.733,VALID,0,VALID,88.1572,VALID,48.3485,VALID,20.2489,VALID,8,VALID,1.20781,
2014-07-08, 07:41:04,VALID,917.769,VALID,0,VALID,88.5765,VALID,48.456,VALID,20.2699,VALID,9,VALID,0.323828,
2014-07-08, 07:42:04,VALID,917.763,VALID,0,VALID,88.9576,VALID,46.1997,VALID,20.2684,VALID,9,VALID,0.512109,
2014-07-08, 07:43:04,VALID,917.809,VALID,0,VALID,89.0491,VALID,46.9518,VALID,20.2489,VALID,21,VALID,0.946875,
2014-07-08, 07:44:04,VALID,917.821,VALID,0,VALID,89.3083,VALID,52.3238,VALID,20.2684,VALID,21,VALID,0.435937,
2014-07-08, 07:45:04,VALID,917.852,VALID,0,VALID,89.0644,VALID,50.9271,VALID,20.2699,VALID,21,VALID,0.494531,
2014-07-08, 07:46:04,VALID,917.884,VALID,0,VALID,88.3935,VALID,50.8197,VALID,20.2714,VALID,270,VALID,0.759375,
2014-07-08, 07:47:04,VALID,917.888,VALID,0,VALID,88.607,VALID,51.6792,VALID,20.2293,VALID,285,VALID,0.489062,
2014-07-08, 07:48:04,VALID,917.897,VALID,0,VALID,88.9576,VALID,50.2825,VALID,20.2699,VALID,292,VALID,0.130078,
2014-07-08, 07:49:04,VALID,917.883,VALID,0,VALID,88.7213,VALID,54.4727,VALID,20.2489,VALID,292,VALID,0.226172,
2014-07-08, 07:50:04,VALID,917.864,VALID,0,VALID,88.8738,VALID,57.2661,VALID,20.2894,VALID,297,VALID,0.433203,
2014-07-08, 07:51:04,VALID,917.877,VALID,0,VALID,88.7594,VALID,58.448,VALID,20.2293,VALID,270,VALID,0.799609,
2014-07-08, 07:52:04,VALID,917.843,VALID,0,VALID,88.8509,VALID,58.9852,VALID,20.2098,VALID,67,VALID,0.720312,
2014-07-08, 07:53:04,VALID,917.895,VALID,0,VALID,89.3312,VALID,62.8531,VALID,20.2309,VALID,296,VALID,0.878906,
2014-07-08, 07:54:04,VALID,917.906,VALID,0,VALID,89.9868,VALID,65.6465,VALID,20.2293,VALID,3,VALID,0.914844,
2014-07-08, 07:55:04,VALID,917.94,VALID,0,VALID,89.8648,VALID,62.2084,VALID,20.2504,VALID,2,VALID,0.177734,
2014-07-08, 07:56:04,VALID,917.935,VALID,0,VALID,89.3922,VALID,60.3819,VALID,20.2504,VALID,3,VALID,0.46875,
2014-07-08, 07:57:04,VALID,917.981,VALID,0,VALID,89.3159,VALID,61.9935,VALID,20.2278,VALID,300,VALID,0.797266,
2014-07-08, 07:58:04,VALID,917.985,VALID,0,VALID,88.7366,VALID,65.3242,VALID,20.2489,VALID,231,VALID,1.10664,
2014-07-08, 07:59:04,VALID,917.979,VALID,0,VALID,88.424,VALID,65.2168,VALID,20.2699,VALID,228,VALID,1.43359,
2014-07-08, 08:00:04,VALID,918.008,VALID,0,VALID,88.8128,VALID,59.0926,VALID,20.2684,VALID,18,VALID,1.21367,
2014-07-08, 08:02:04,VALID,918.076,VALID,0,VALID,89.3083,VALID,60.167,VALID,20.3284,VALID,13,VALID,1.32383,
2014-07-08, 08:03:04,VALID,918.077,VALID,0,VALID,89.6437,VALID,68.7623,VALID,20.3269,VALID,4,VALID,0.492188,
2014-07-08, 08:04:04,VALID,918.051,VALID,0,VALID,89.011,VALID,93.7961,VALID,20.3269,VALID,338,VALID,0.670703,
2014-07-08, 08:05:04,VALID,918.093,VALID,0,VALID,89.133,VALID,95.5152,VALID,20.3674,VALID,7,VALID,0.663281,
2014-07-08, 08:06:04,VALID,918.095,VALID,0,VALID,88.9195,VALID,97.5566,VALID,20.3464,VALID,29,VALID,0.538281,
2014-07-08, 08:07:04,VALID,918.103,VALID,0,VALID,89.0034,VALID,107.763,VALID,20.3869,VALID,22,VALID,0.389453,
2014-07-08, 08:08:04,VALID,918.094,VALID,0,VALID,89.6514,VALID,105.83,VALID,20.4439,VALID,22,VALID,1.36484,
2014-07-08, 08:09:04,VALID,918.104,VALID,0,VALID,88.9653,VALID,115.714,VALID,20.4244,VALID,353,VALID,0.749609,
2014-07-08, 08:10:04,VALID,918.142,VALID,0,VALID,88.7442,VALID,147.946,VALID,20.4454,VALID,206,VALID,0.275,
2014-07-08, 08:11:04,VALID,918.142,VALID,0,VALID,88.7975,VALID,147.087,VALID,20.4423,VALID,205,VALID,0.419141,
2014-07-08, 08:12:04,VALID,918.135,VALID,0,VALID,88.7899,VALID,132.26,VALID,20.5024,VALID,194,VALID,0.627344,
2014-07-08, 08:13:04,VALID,918.123,VALID,0,VALID,89.0644,VALID,141.393,VALID,20.5625,VALID,49,VALID,0.747266,
2014-07-08, 08:14:04,VALID,918.116,VALID,0,VALID,89.3541,VALID,182.328,VALID,20.5999,VALID,278,VALID,0.502344,
2014-07-08, 08:15:04,VALID,918.099,VALID,0,VALID,88.2487,VALID,204.353,VALID,20.639,VALID,280,VALID,0.834766,
2014-07-08, 08:16:04,VALID,918.079,VALID,0,VALID,88.8585,VALID,229.279,VALID,20.6975,VALID,66,VALID,1.08789,
2014-07-08, 08:17:04,VALID,918.107,VALID,0,VALID,88.2792,VALID,265.702,VALID,20.7755,VALID,235,VALID,0.798828,
2014-07-08, 08:18:04,VALID,918.104,VALID,0,VALID,88.4469,VALID,184.799,VALID,20.8925,VALID,20,VALID,0.840234,
2014-07-08, 08:19:04,VALID,918.132,VALID,0,VALID,87.2805,VALID,203.708,VALID,20.9917,VALID,10,VALID,1.90391,
2014-07-08, 08:20:04,VALID,918.136,VALID,0,VALID,86.8536,VALID,303.629,VALID,20.9901,VALID,246,VALID,1.20078,
2014-07-08, 08:21:04,VALID,918.148,VALID,0,VALID,87.2424,VALID,202.312,VALID,21.0486,VALID,15,VALID,0.78125,
2014-07-08, 08:22:04,VALID,918.122,VALID,0,VALID,86.1827,VALID,185.873,VALID,21.086,VALID,328,VALID,1.02031,
2014-07-08, 08:23:04,VALID,918.13,VALID,0,VALID,86.8612,VALID,159.443,VALID,21.1266,VALID,21,VALID,1.64883,
2014-07-08, 08:24:04,VALID,918.131,VALID,0,VALID,86.8993,VALID,142.36,VALID,21.1461,VALID,43,VALID,1.31094,
2014-07-08, 08:25:04,VALID,918.133,VALID,0,VALID,87.1585,VALID,157.079,VALID,21.1266,VALID,40,VALID,2.16484,
2014-07-08, 08:26:04,VALID,918.175,VALID,0,VALID,87.2195,VALID,162.666,VALID,21.1266,VALID,19,VALID,1.65391,
2014-07-08, 08:27:04,VALID,918.153,VALID,0,VALID,86.8764,VALID,152.889,VALID,21.1071,VALID,25,VALID,1.47305,
2014-07-08, 08:28:04,VALID,918.177,VALID,0,VALID,87.4101,VALID,127.425,VALID,21.1071,VALID,26,VALID,1.92227,
2014-07-08, 08:29:04,VALID,918.168,VALID,0,VALID,87.4025,VALID,118.722,VALID,21.0486,VALID,17,VALID,1.31016,
2014-07-08, 08:30:04,VALID,918.182,VALID,0,VALID,87.5321,VALID,119.797,VALID,21.0486,VALID,19,VALID,1.56641,
2014-07-08, 08:31:04,VALID,918.184,VALID,0,VALID,87.1966,VALID,125.169,VALID,21.008,VALID,358,VALID,0.680469,
2014-07-08, 08:32:04,VALID,918.186,VALID,0,VALID,87.5244,VALID,116.896,VALID,20.9885,VALID,14,VALID,0.49375,
2014-07-08, 08:33:04,VALID,918.243,VALID,0,VALID,87.4482,VALID,114.962,VALID,20.9706,VALID,305,VALID,0.304688,
2014-07-08, 08:34:04,VALID,918.248,VALID,0,VALID,87.7989,VALID,97.2342,VALID,20.9316,VALID,18,VALID,1.31055,
2014-07-08, 08:35:04,VALID,918.242,VALID,0,VALID,88.2105,VALID,76.1758,VALID,20.8129,VALID,335,VALID,0.814062,
2014-07-08, 08:36:04,VALID,918.215,VALID,0,VALID,89.0339,VALID,69.7293,VALID,20.7739,VALID,29,VALID,1.80703,
2014-07-08, 08:37:04,VALID,918.241,VALID,0,VALID,89.1101,VALID,93.1515,VALID,20.7154,VALID,6,VALID,1.58125,
2014-07-08, 08:38:04,VALID,918.24,VALID,0,VALID,89.8267,VALID,106.474,VALID,20.6358,VALID,336,VALID,1.25586,
2014-07-08, 08:39:04,VALID,918.18,VALID,0,VALID,90.4137,VALID,109.375,VALID,20.5968,VALID,315,VALID,1.31211,
2014-07-08, 08:40:04,VALID,918.233,VALID,0,VALID,90.8483,VALID,115.392,VALID,20.5172,VALID,20,VALID,1.44062,
2014-07-08, 08:41:04,VALID,918.246,VALID,0,VALID,91.5648,VALID,126.458,VALID,20.5789,VALID,26,VALID,1.93477,
2014-07-08, 08:42:04,VALID,918.297,VALID,0,VALID,92.068,VALID,158.798,VALID,20.5594,VALID,23,VALID,0.328516,
2014-07-08, 08:43:04,VALID,918.277,VALID,0,VALID,92.3043,VALID,175.666,VALID,20.5773,VALID,124,VALID,0.923047,
2014-07-08, 08:44:04,VALID,918.267,VALID,0,VALID,92.3119,VALID,170.939,VALID,20.6194,VALID,52,VALID,0.608594,
2014-07-08, 08:45:04,VALID,918.297,VALID,0,VALID,92.3272,VALID,179.427,VALID,20.5594,VALID,329,VALID,2.54922,
2014-07-08, 08:46:04,VALID,918.244,VALID,0,VALID,90.8406,VALID,201.989,VALID,20.4033,VALID,340,VALID,1.58984,
2014-07-08, 08:47:04,VALID,918.222,VALID,0,VALID,90.7415,VALID,216.709,VALID,20.3643,VALID,12,VALID,2.2457,
2014-07-08, 08:48:04,VALID,918.271,VALID,0,VALID,91.1379,VALID,205.75,VALID,20.3448,VALID,18,VALID,1.02578,
2014-07-08, 08:49:04,VALID,918.286,VALID,0,VALID,91.8317,VALID,217.568,VALID,20.3612,VALID,32,VALID,1.54062,
2014-07-08, 08:50:04,VALID,918.292,VALID,0,VALID,91.5115,VALID,198.121,VALID,20.3838,VALID,30,VALID,1.51016,
2014-07-08, 08:51:04,VALID,918.313,VALID,0,VALID,91.7859,VALID,212.841,VALID,20.4002,VALID,25,VALID,1.22383,
2014-07-08, 08:52:04,VALID,918.318,VALID,0,VALID,91.2752,VALID,209.188,VALID,20.4423,VALID,351,VALID,1.17773,
2014-07-08, 08:53:04,VALID,918.304,VALID,0,VALID,90.5891,VALID,258.396,VALID,20.4197,VALID,7,VALID,2.50703,
2014-07-08, 08:54:04,VALID,918.331,VALID,0,VALID,90.4823,VALID,408.491,VALID,20.4813,VALID,14,VALID,2.11094,
2014-07-08, 08:55:04,VALID,918.346,VALID,0,VALID,90.9855,VALID,366.267,VALID,20.6194,VALID,3,VALID,1.13242,
2014-07-08, 08:56:04,VALID,918.359,VALID,0,VALID,89.8038,VALID,371.531,VALID,20.6553,VALID,3,VALID,1.39531,
2014-07-08, 08:57:04,VALID,918.318,VALID,0,VALID,88.9271,VALID,363.259,VALID,20.7723,VALID,4,VALID,1.79219,
2014-07-08, 08:58:04,VALID,918.376,VALID,0,VALID,88.7823,VALID,424.715,VALID,20.9901,VALID,21,VALID,1.62734,
2014-07-08, 08:59:04,VALID,918.365,VALID,0,VALID,87.7379,VALID,416.979,VALID,21.1039,VALID,350,VALID,1.39766,
2014-07-08, 09:00:04,VALID,918.405,VALID,0,VALID,87.1509,VALID,371.424,VALID,21.2421,VALID,30,VALID,0.946094,
2014-07-08, 09:01:04,VALID,918.417,VALID,0,VALID,86.2056,VALID,362.721,VALID,21.3591,VALID,356,VALID,0.884375,
2014-07-08, 09:02:04,VALID,918.386,VALID,0,VALID,85.1154,VALID,345.638,VALID,21.4973,VALID,14,VALID,2.66719,
2014-07-08, 09:03:04,VALID,918.459,VALID,0,VALID,85.5119,VALID,353.159,VALID,21.5787,VALID,17,VALID,0.778906,
2014-07-08, 09:04:04,VALID,918.419,VALID,0,VALID,84.0329,VALID,374.54,VALID,21.6729,VALID,338,VALID,0.7,
2014-07-08, 09:05:04,VALID,918.411,VALID,0,VALID,83.5755,VALID,372.713,VALID,21.712,VALID,346,VALID,2.89805,
2014-07-08, 09:06:04,VALID,918.41,VALID,0,VALID,84.2083,VALID,330.059,VALID,21.5916,VALID,3,VALID,2.28594,
2014-07-08, 09:07:04,VALID,918.448,VALID,0,VALID,84.7114,VALID,312.439,VALID,21.5916,VALID,23,VALID,1.97109,
2014-07-08, 09:08:04,VALID,918.426,VALID,0,VALID,83.9338,VALID,296.752,VALID,21.5347,VALID,14,VALID,3.9457,
2014-07-08, 09:09:04,VALID,918.477,VALID,0,VALID,84.8486,VALID,280.529,VALID,21.4762,VALID,349,VALID,1.78125,
2014-07-08, 09:10:04,VALID,918.447,VALID,0,VALID,85.4432,VALID,263.553,VALID,21.377,VALID,23,VALID,2.60117,
2014-07-08, 09:11:04,VALID,918.476,VALID,0,VALID,85.5119,VALID,232.395,VALID,21.3965,VALID,22,VALID,1.34063,
2014-07-08, 09:12:04,VALID,918.454,VALID,0,VALID,85.954,VALID,206.072,VALID,21.538,VALID,15,VALID,1.2125,
2014-07-08, 09:13:04,VALID,918.417,VALID,0,VALID,84.2921,VALID,189.204,VALID,21.455,VALID,15,VALID,2.2582,
2014-07-08, 09:14:04,VALID,918.442,VALID,0,VALID,85.6796,VALID,186.518,VALID,21.4583,VALID,33,VALID,2.54688,
2014-07-08, 09:15:04,VALID,918.429,VALID,0,VALID,85.8778,VALID,194.468,VALID,21.416,VALID,12,VALID,2.0543,
2014-07-08, 09:16:04,VALID,918.435,VALID,0,VALID,86.2132,VALID,200.055,VALID,21.3981,VALID,8,VALID,0.801953,
2014-07-08, 09:17:04,VALID,918.44,VALID,0,VALID,85.1002,VALID,200.7,VALID,21.338,VALID,341,VALID,2.72187,
2014-07-08, 09:18:04,VALID,918.477,VALID,0,VALID,86.198,VALID,204.461,VALID,21.3608,VALID,342,VALID,2.21172,
2014-07-08, 09:19:04,VALID,918.451,VALID,0,VALID,87.4482,VALID,217.676,VALID,21.2584,VALID,35,VALID,1.98477,
2014-07-08, 09:20:04,VALID,918.416,VALID,0,VALID,88.1267,VALID,232.932,VALID,21.3412,VALID,347,VALID,1.16445,
2014-07-08, 09:21:04,VALID,918.471,VALID,0,VALID,86.6782,VALID,248.189,VALID,21.338,VALID,331,VALID,1.15703,
2014-07-08, 09:22:04,VALID,918.446,VALID,0,VALID,86.2513,VALID,246.47,VALID,21.3803,VALID,324,VALID,0.334766,
2014-07-08, 09:23:04,VALID,918.42,VALID,0,VALID,87.3034,VALID,269.677,VALID,21.4746,VALID,17,VALID,1.22891,
2014-07-08, 09:24:04,VALID,918.414,VALID,0,VALID,84.9325,VALID,262.049,VALID,21.5119,VALID,8,VALID,1.03398,
2014-07-08, 09:25:04,VALID,918.423,VALID,0,VALID,85.489,VALID,276.876,VALID,21.6128,VALID,354,VALID,1.00273,
2014-07-08, 09:26:04,VALID,918.426,VALID,0,VALID,84.5894,VALID,271.396,VALID,21.6501,VALID,334,VALID,1.06602,
2014-07-08, 09:27:04,VALID,918.433,VALID,0,VALID,85.024,VALID,261.189,VALID,21.6875,VALID,343,VALID,0.490625,
2014-07-08, 09:28:04,VALID,918.432,VALID,0,VALID,85.1307,VALID,276.231,VALID,21.79,VALID,15,VALID,1.17422,
2014-07-08, 09:29:04,VALID,918.424,VALID,0,VALID,84.658,VALID,293.207,VALID,21.7282,VALID,351,VALID,2.12891,
2014-07-08, 09:30:04,VALID,918.431,VALID,0,VALID,85.0926,VALID,249.801,VALID,21.6501,VALID,17,VALID,2.08594,
2014-07-08, 09:31:04,VALID,918.435,VALID,0,VALID,86.6554,VALID,223.907,VALID,21.6518,VALID,13,VALID,1.19883,
2014-07-08, 09:32:04,VALID,918.457,VALID,0,VALID,86.5105,VALID,205.75,VALID,21.6696,VALID,2,VALID,0.723437,
2014-07-08, 09:33:04,VALID,918.448,VALID,0,VALID,85.9235,VALID,214.882,VALID,21.7087,VALID,14,VALID,1.55195,
2014-07-08, 09:34:04,VALID,918.437,VALID,0,VALID,85.4128,VALID,243.247,VALID,21.6924,VALID,8,VALID,2.44258,
2014-07-08, 09:35:04,VALID,918.474,VALID,0,VALID,86.5258,VALID,239.809,VALID,21.6323,VALID,12,VALID,1.21758,
2014-07-08, 09:36:04,VALID,918.433,VALID,0,VALID,86.0836,VALID,253.776,VALID,21.5363,VALID,353,VALID,2.0875,
2014-07-08, 09:37:04,VALID,918.436,VALID,0,VALID,86.541,VALID,289.446,VALID,21.538,VALID,30,VALID,2.53555,
2014-07-08, 09:38:04,VALID,918.491,VALID,0,VALID,86.8002,VALID,319.96,VALID,21.5168,VALID,5,VALID,1.27617,
2014-07-08, 09:39:04,VALID,918.456,VALID,0,VALID,87.6235,VALID,355.308,VALID,21.5965,VALID,5,VALID,1.01406,
2014-07-08, 09:40:04,VALID,918.447,VALID,0,VALID,86.3352,VALID,338.762,VALID,21.6924,VALID,328,VALID,0.710156,
2014-07-08, 09:41:04,VALID,918.464,VALID,0,VALID,85.7863,VALID,358.424,VALID,21.829,VALID,343,VALID,1.28047,
2014-07-08, 09:42:04,VALID,918.46,VALID,0,VALID,83.9567,VALID,372.391,VALID,21.9461,VALID,313,VALID,1.2625,
2014-07-08, 09:43:04,VALID,918.464,VALID,0,VALID,84.4522,VALID,300.943,VALID,21.9249,VALID,17,VALID,1.32422,
2014-07-08, 09:44:04,VALID,918.459,VALID,0,VALID,84.8715,VALID,257.536,VALID,21.964,VALID,9,VALID,1.56445,
2014-07-08, 09:45:04,VALID,918.479,VALID,0,VALID,85.0545,VALID,278.165,VALID,22.003,VALID,15,VALID,1.94609,
2014-07-08, 09:46:04,VALID,918.476,VALID,0,VALID,85.7101,VALID,285.793,VALID,22.1022,VALID,15,VALID,1.25703,
2014-07-08, 09:47:04,VALID,918.457,VALID,0,VALID,83.5984,VALID,257.107,VALID,22.1396,VALID,9,VALID,2.63281,
2014-07-08, 09:48:04,VALID,918.483,VALID,0,VALID,84.9401,VALID,237.015,VALID,22.0013,VALID,13,VALID,1.80586,
2014-07-08, 09:49:04,VALID,918.472,VALID,0,VALID,85.2679,VALID,223.155,VALID,21.9021,VALID,17,VALID,1.55391,
2014-07-08, 09:50:04,VALID,918.445,VALID,0,VALID,84.963,VALID,201.345,VALID,21.9606,VALID,19,VALID,1.3793,
2014-07-08, 09:51:04,VALID,918.458,VALID,0,VALID,85.2145,VALID,170.617,VALID,21.8809,VALID,19,VALID,2.31523,
2014-07-08, 09:52:04,VALID,918.437,VALID,0,VALID,85.7177,VALID,169.864,VALID,21.8241,VALID,353,VALID,1.29102,
2014-07-08, 09:53:04,VALID,918.399,VALID,0,VALID,85.6948,VALID,177.815,VALID,21.8062,VALID,355,VALID,1.35508,
2014-07-08, 09:54:04,VALID,918.409,VALID,0,VALID,85.9007,VALID,184.476,VALID,21.7444,VALID,18,VALID,0.850391,
2014-07-08, 09:55:04,VALID,918.391,VALID,0,VALID,85.4585,VALID,175.022,VALID,21.7867,VALID,21,VALID,1.99648,
2014-07-08, 09:56:04,VALID,918.361,VALID,0,VALID,84.7876,VALID,149.451,VALID,21.8274,VALID,19,VALID,0.432422,
2014-07-08, 09:57:04,VALID,918.382,VALID,0,VALID,85.0545,VALID,132.582,VALID,21.785,VALID,12,VALID,0.496875,
2014-07-08, 09:58:04,VALID,918.408,VALID,0,VALID,85.3899,VALID,134.731,VALID,21.9071,VALID,32,VALID,0.946094,
2014-07-08, 09:59:04,VALID,918.382,VALID,0,VALID,85.9083,VALID,149.773,VALID,21.9623,VALID,17,VALID,1.03398,
2014-07-08, 10:00:04,VALID,918.363,VALID,0,VALID,85.0163,VALID,155.038,VALID,21.9785,VALID,349,VALID,0.864453,
2014-07-08, 10:01:04,VALID,918.344,VALID,0,VALID,84.7495,VALID,167.716,VALID,22.0225,VALID,7,VALID,2.01953,
2014-07-08, 10:02:04,VALID,918.365,VALID,0,VALID,85.672,VALID,192.212,VALID,22.042,VALID,12,VALID,1.34063,
2014-07-08, 10:03:04,VALID,918.322,VALID,0,VALID,85.3213,VALID,209.403,VALID,22.0208,VALID,27,VALID,1.17852,
2014-07-08, 10:04:04,VALID,918.349,VALID,0,VALID,84.7038,VALID,217.246,VALID,21.998,VALID,3,VALID,1.06758,
2014-07-08, 10:05:04,VALID,918.348,VALID,0,VALID,85.4356,VALID,206.072,VALID,22.0403,VALID,17,VALID,2.00469,
2014-07-08, 10:06:04,VALID,918.365,VALID,0,VALID,85.0087,VALID,196.617,VALID,21.9606,VALID,358,VALID,1.33477,
2014-07-08, 10:07:04,VALID,918.327,VALID,0,VALID,84.1091,VALID,184.476,VALID,21.9623,VALID,344,VALID,1.54961,
2014-07-08, 10:08:04,VALID,918.346,VALID,0,VALID,84.5437,VALID,185.981,VALID,21.9021,VALID,341,VALID,0.759766,
2014-07-08, 10:09:04,VALID,918.362,VALID,0,VALID,84.8486,VALID,193.931,VALID,21.8614,VALID,23,VALID,1.43789,
2014-07-08, 10:10:04,VALID,918.331,VALID,0,VALID,85.245,VALID,192.105,VALID,21.9428,VALID,38,VALID,1.94219,
2014-07-08, 10:11:04,VALID,918.364,VALID,0,VALID,85.6415,VALID,185.551,VALID,22.0013,VALID,320,VALID,0.503906,
2014-07-08, 10:12:04,VALID,918.365,VALID,0,VALID,85.0087,VALID,180.931,VALID,22.0794,VALID,12,VALID,2.01133,
2014-07-08, 10:13:04,VALID,918.406,VALID,0,VALID,83.8728,VALID,184.154,VALID,22.1201,VALID,328,VALID,0.972656,
2014-07-08, 10:14:04,VALID,918.358,VALID,0,VALID,85.0163,VALID,224.767,VALID,22.1379,VALID,14,VALID,1.83672,
2014-07-08, 10:15:04,VALID,918.365,VALID,0,VALID,84.6733,VALID,264.842,VALID,22.1167,VALID,352,VALID,1.59844,
2014-07-08, 10:16:04,VALID,918.39,VALID,0,VALID,85.7482,VALID,274.62,VALID,22.1396,VALID,22,VALID,1.62188,
2014-07-08, 10:17:04,VALID,918.345,VALID,0,VALID,84.7343,VALID,280.314,VALID,22.1786,VALID,20,VALID,2.44609,
2014-07-08, 10:18:04,VALID,918.391,VALID,0,VALID,85.489,VALID,346.605,VALID,22.1201,VALID,11,VALID,2.64023,
2014-07-08, 10:19:04,VALID,918.384,VALID,0,VALID,84.5132,VALID,374.54,VALID,22.0208,VALID,16,VALID,1.77422,
2014-07-08, 10:20:04,VALID,918.377,VALID,0,VALID,85.3365,VALID,394.631,VALID,22.0615,VALID,10,VALID,2.23594,
2014-07-08, 10:21:04,VALID,918.389,VALID,0,VALID,85.9311,VALID,370.994,VALID,22.1201,VALID,36,VALID,1.64883,
2014-07-08, 10:22:04,VALID,918.39,VALID,0,VALID,85.0849,VALID,370.027,VALID,22.1591,VALID,20,VALID,1.73477,
2014-07-08, 10:23:04,VALID,918.357,VALID,0,VALID,84.6047,VALID,355.738,VALID,22.1396,VALID,51,VALID,2.28945,
2014-07-08, 10:24:04,VALID,918.396,VALID,0,VALID,84.3302,VALID,334.787,VALID,22.1362,VALID,104,VALID,0.935938,
2014-07-08, 10:25:04,VALID,918.399,VALID,0,VALID,84.4903,VALID,309.645,VALID,22.2567,VALID,360,VALID,2.31562,
2014-07-08, 10:26:04,VALID,918.364,VALID,0,VALID,84.6123,VALID,326.943,VALID,22.2371,VALID,9,VALID,1.88437,
2014-07-08, 10:27:04,VALID,918.314,VALID,0,VALID,85.3975,VALID,351.547,VALID,22.2762,VALID,352,VALID,1.09922,
2014-07-08, 10:28:04,VALID,918.331,VALID,0,VALID,84.6352,VALID,333.712,VALID,22.3135,VALID,24,VALID,1.50039,
2014-07-08, 10:29:04,VALID,918.346,VALID,0,VALID,85.7939,VALID,361.325,VALID,22.3916,VALID,5,VALID,1.30508,
2014-07-08, 10:30:04,VALID,918.316,VALID,0,VALID,84.437,VALID,363.151,VALID,22.4111,VALID,328,VALID,0.536328,
2014-07-08, 10:31:04,VALID,918.28,VALID,0,VALID,83.5603,VALID,308.141,VALID,22.5103,VALID,337,VALID,1.21758,
2014-07-08, 10:32:04,VALID,918.264,VALID,0,VALID,84.0405,VALID,235.404,VALID,22.5477,VALID,24,VALID,1.74063,
2014-07-08, 10:33:04,VALID,918.253,VALID,0,VALID,84.1396,VALID,192.32,VALID,22.5867,VALID,27,VALID,0.916797,
2014-07-08, 10:34:04,VALID,918.274,VALID,0,VALID,83.8576,VALID,176.848,VALID,22.6647,VALID,19,VALID,1.37109,
2014-07-08, 10:35:04,VALID,918.27,VALID,0,VALID,83.2172,VALID,175.989,VALID,22.6843,VALID,10,VALID,0.989453,
2014-07-08, 10:36:04,VALID,918.234,VALID,0,VALID,83.5374,VALID,223.692,VALID,22.6647,VALID,12,VALID,0.664844,
2014-07-08, 10:37:04,VALID,918.233,VALID,0,VALID,83.1867,VALID,290.951,VALID,22.7038,VALID,29,VALID,0.574609,
2014-07-08, 10:38:04,VALID,918.231,VALID,0,VALID,82.7217,VALID,298.686,VALID,22.6665,VALID,65,VALID,0.609375,
2014-07-08, 10:39:04,VALID,918.229,VALID,0,VALID,83.4612,VALID,261.297,VALID,22.6843,VALID,58,VALID,0.682813,
2014-07-08, 10:40:04,VALID,918.199,VALID,0,VALID,82.3786,VALID,210.262,VALID,22.7428,VALID,53,VALID,0.277344,
2014-07-08, 10:41:04,VALID,918.182,VALID,0,VALID,82.2872,VALID,157.509,VALID,22.7428,VALID,65,VALID,0.253125,
2014-07-08, 10:42:04,VALID,918.196,VALID,0,VALID,82.2033,VALID,123.128,VALID,22.7623,VALID,66,VALID,1.01797,
2014-07-08, 10:43:04,VALID,918.212,VALID,0,VALID,83.6289,VALID,98.7384,VALID,22.7623,VALID,66,VALID,0.334766,
2014-07-08, 10:44:04,VALID,918.169,VALID,0,VALID,84.0405,VALID,96.1598,VALID,22.686,VALID,58,VALID,0.494531,
2014-07-08, 10:45:04,VALID,918.106,VALID,0,VALID,84.6885,VALID,120.764,VALID,22.5672,VALID,45,VALID,0.887109,
2014-07-08, 10:46:04,VALID,918.168,VALID,0,VALID,85.4356,VALID,149.558,VALID,22.4696,VALID,15,VALID,1.39844,
2014-07-08, 10:47:04,VALID,918.146,VALID,0,VALID,87.5854,VALID,158.691,VALID,22.3916,VALID,16,VALID,1.45273,
2014-07-08, 10:48:04,VALID,918.162,VALID,0,VALID,87.5016,VALID,186.196,VALID,22.294,VALID,344,VALID,0.355078,
2014-07-08, 10:49:04,VALID,918.143,VALID,0,VALID,86.6249,VALID,177.278,VALID,22.2762,VALID,9,VALID,1.88633,
2014-07-08, 10:50:04,VALID,918.161,VALID,0,VALID,87.2805,VALID,152.352,VALID,22.1769,VALID,48,VALID,0.967578,
2014-07-08, 10:51:04,VALID,918.123,VALID,0,VALID,87.2271,VALID,145.046,VALID,22.0989,VALID,18,VALID,1.49023,
2014-07-08, 10:52:04,VALID,918.165,VALID,0,VALID,87.7608,VALID,163.418,VALID,22.0598,VALID,45,VALID,0.46875,
2014-07-08, 10:53:04,VALID,918.1,VALID,0,VALID,88.1877,VALID,168.897,VALID,22.0403,VALID,45,VALID,0.820313,